Weather History for KAFK - February, 2014

Change the Weather History Date:

Tuesday, February 4, 2014

  Actual Average (KSDA) Record (KSDA)
Temperature  
Mean Temperature 16 °F -  
Max Temperature 24 °F 33 °F 60 °F (2005)
Min Temperature 6 °F 15 °F -14 °F (1989)
Degree Days  
Heating Degree Days 50    
Moisture  
Dew Point 14 °F    
Average Humidity 81    
Maximum Humidity 96    
Minimum Humidity 66    
Precipitation  
Precipitation 0.00 in - - ()
Sea Level Pressure  
Sea Level Pressure 30.22 in    
Wind  
Wind Speed 11 mph (NE)    
Max Wind Speed 28 mph    
Max Gust Speed 33 mph    
Visibility 5 miles    
Events Snow    
Averages and records for this station are not official NWS values.
T = Trace of Precipitation, MM = Missing Value Source: NWS Daily Summary

Daily Weather History Graph

Daily Weather History Graph

Search for Another Location

Airport or City:

Trip Planner

Search our weather history database for the weather conditions in past years. The results will help you decide how hot, cold, wet, or windy it might be!

Date:

Astronomy

Feb. 04, 2014 Rise Set
Actual Time 7:30 AM CST 5:45 PM CST
Civil Twilight 7:01 AM CST 6:13 PM CST
Nautical Twilight 6:28 AM CST 6:46 PM CST
Astronomical Twilight 5:56 AM CST 7:18 PM CST
Moon 10:06 AM CST (2/4) 11:42 PM CST (2/4)
Length of Visible Light 11h 12m
Length of Day
10h 15m
Waxing Crescent, 29% of the Moon is Illuminated
Feb 4
Waxing Crescent
Feb 6
First Quarter
Feb 14
Full
Feb 22
Last Quarter
Mar 1
New

Hourly Weather History & Observations

Time (CST) Temp. Windchill Dew Point Humidity Pressure Visibility Wind Dir Wind Speed Gust Speed Precip Events Conditions
12:15 AM 23.5 °F 19.1 °F 13.6 °F 66% 30.23 in 10.0 mi East 3.5 mph - N/A   Overcast
12:35 AM 23.5 °F 17.6 °F 13.6 °F 66% 30.23 in 10.0 mi East 4.6 mph - N/A   Overcast
12:55 AM 23.5 °F 15.4 °F 14.0 °F 67% 30.23 in 10.0 mi NE 6.9 mph - N/A   Overcast
1:15 AM 23.4 °F 13.5 °F 14.0 °F 67% 30.23 in 10.0 mi NE 9.2 mph - N/A   Overcast
1:35 AM 23.2 °F 17.2 °F 14.0 °F 68% 30.23 in 10.0 mi ENE 4.6 mph - N/A   Overcast
1:55 AM 23.0 °F 17.0 °F 14.0 °F 68% 30.23 in 10.0 mi ENE 4.6 mph - N/A   Overcast
2:15 AM 22.6 °F 15.3 °F 15.1 °F 73% 30.23 in 7.0 mi NE 5.8 mph - N/A   Overcast
2:35 AM 22.5 °F 15.1 °F 15.4 °F 74% 30.23 in 10.0 mi NE 5.8 mph - N/A   Overcast
2:55 AM 22.3 °F 13.9 °F 15.8 °F 76% 30.23 in 10.0 mi East 6.9 mph - N/A   Overcast
3:15 AM 22.1 °F 13.7 °F 17.1 °F 81% 30.23 in 10.0 mi East 6.9 mph - N/A   Overcast
3:35 AM 22.1 °F 13.7 °F 17.4 °F 82% 30.23 in 10.0 mi East 6.9 mph - N/A   Overcast
3:55 AM 21.9 °F 13.4 °F 17.1 °F 82% 30.23 in 10.0 mi East 6.9 mph - N/A   Overcast
4:15 AM 21.9 °F 13.4 °F 17.1 °F 82% 30.23 in 10.0 mi East 6.9 mph - N/A   Overcast
4:35 AM 22.1 °F 12.0 °F 16.3 °F 79% 30.24 in 10.0 mi East 9.2 mph - N/A   Overcast
4:55 AM 22.1 °F 13.7 °F 16.2 °F 78% 30.25 in 10.0 mi East 6.9 mph - N/A   Overcast
5:15 AM 22.5 °F 13.2 °F 14.9 °F 73% 30.26 in 10.0 mi ESE 8.1 mph - N/A   Overcast
5:35 AM 22.6 °F 11.9 °F 13.8 °F 69% 30.26 in 10.0 mi East 10.4 mph - N/A   Overcast
5:55 AM 22.5 °F 11.7 °F 14.0 °F 70% 30.26 in 10.0 mi East 10.4 mph - N/A   Overcast
6:15 AM 22.6 °F 12.6 °F 13.5 °F 68% 30.25 in 10.0 mi East 9.2 mph - N/A   Overcast
6:35 AM 22.6 °F 12.6 °F 13.1 °F 67% 30.23 in 10.0 mi East 9.2 mph - N/A   Overcast
6:55 AM 23.0 °F 13.1 °F 14.0 °F 68% 30.23 in 10.0 mi ENE 9.2 mph - N/A   Overcast
7:15 AM 23.4 °F 15.2 °F 15.8 °F 73% 30.23 in 10.0 mi East 6.9 mph - N/A   Overcast
7:35 AM 22.8 °F 13.6 °F 16.3 °F 76% 30.23 in 5.0 mi East 8.1 mph - N/A   Haze
7:55 AM 22.8 °F 12.9 °F 17.6 °F 80% 30.21 in 10.0 mi ENE 9.2 mph - N/A   Overcast
8:15 AM 23.4 °F 12.2 °F 17.4 °F 78% 30.21 in 7.0 mi ENE 11.5 mph - N/A   Overcast
8:35 AM 23.4 °F 13.5 °F 18.0 °F 80% 30.19 in 7.0 mi NE 9.2 mph - N/A   Overcast
8:55 AM 23.9 °F 12.9 °F 17.2 °F 76% 30.21 in 10.0 mi ENE 11.5 mph - N/A   Overcast
9:15 AM 24.4 °F 13.5 °F 16.7 °F 72% 30.21 in 10.0 mi ENE 11.5 mph - N/A   Overcast
9:35 AM 24.6 °F 13.8 °F 17.1 °F 73% 30.22 in 10.0 mi ENE 11.5 mph - N/A   Overcast
9:55 AM 24.6 °F 12.2 °F 17.4 °F 74% 30.22 in 7.0 mi East 15.0 mph 18.4 mph N/A Snow Light Snow
10:15 AM 24.6 °F 15.1 °F 18.5 °F 78% 30.23 in 3.0 mi East 9.2 mph - N/A Snow Light Snow
10:35 AM 24.8 °F 11.9 °F 16.9 °F 72% 30.23 in 10.0 mi East 16.1 mph 21.9 mph N/A   Overcast
10:55 AM 24.6 °F 10.1 °F 15.4 °F 68% 30.21 in 4.0 mi East 20.7 mph 27.6 mph N/A Snow Light Snow
11:15 AM 23.7 °F 9.7 °F 15.8 °F 72% 30.21 in 4.0 mi East 18.4 mph 23.0 mph N/A Snow Light Snow
11:35 AM 22.6 °F 9.6 °F 17.8 °F 82% 30.20 in 1.5 mi ENE 15.0 mph - N/A Snow Light Snow
11:55 AM 22.5 °F 11.1 °F 19.2 °F 87% 30.19 in 1.5 mi ENE 11.5 mph 20.7 mph N/A Snow Light Snow
12:15 PM 22.5 °F 13.2 °F 19.8 °F 89% 30.19 in 1.2 mi ENE 8.1 mph - N/A Snow Light Snow
12:35 PM 22.8 °F 9.9 °F 20.1 °F 89% 30.17 in 1.5 mi ENE 15.0 mph - N/A Snow Light Snow
12:55 PM 22.6 °F 11.3 °F 20.1 °F 90% 30.17 in 1.2 mi ENE 11.5 mph 19.6 mph N/A Snow Light Snow
1:15 PM 23.0 °F 10.1 °F 21.2 °F 93% 30.16 in 1.0 mi NE 15.0 mph 23.0 mph N/A Snow Light Snow
1:35 PM 23.0 °F 8.7 °F 21.9 °F 96% 30.15 in 0.8 mi NE 18.4 mph 23.0 mph N/A Snow Light Snow
1:55 PM 22.6 °F 7.5 °F 21.0 °F 93% 30.15 in 0.8 mi NE 20.7 mph 24.2 mph N/A Snow Light Snow
2:15 PM 22.3 °F 9.2 °F 20.5 °F 93% 30.15 in 1.0 mi NE 15.0 mph 24.2 mph N/A Snow Light Snow
2:35 PM 22.1 °F 8.5 °F 19.8 °F 91% 30.15 in 1.0 mi NE 16.1 mph 20.7 mph N/A Snow Light Snow
2:55 PM 19.6 °F 3.1 °F 17.4 °F 91% 30.15 in 0.5 mi NNE 21.9 mph - N/A Snow Light Snow
3:15 PM 19.2 °F 3.0 °F 16.7 °F 90% 30.15 in 0.8 mi NNE 20.7 mph - N/A Snow Light Snow
3:35 PM 18.9 °F 2.9 °F 16.5 °F 91% 30.14 in 0.8 mi NNE 19.6 mph - N/A Snow Light Snow
3:55 PM 18.5 °F 2.9 °F 15.8 °F 89% 30.15 in 0.8 mi NE 18.4 mph 28.8 mph N/A Snow Light Snow
4:15 PM 18.3 °F 1.4 °F 15.6 °F 89% 30.15 in 0.8 mi NNE 21.9 mph 27.6 mph N/A Snow Light Snow
4:35 PM 17.6 °F 1.7 °F 14.9 °F 89% 30.16 in 0.5 mi NNE 18.4 mph 29.9 mph N/A Snow Light Snow
4:55 PM 17.4 °F -0.2 °F 14.7 °F 89% 30.16 in 0.8 mi NNE 23.0 mph 28.8 mph N/A Snow Light Snow
5:15 PM 17.2 °F -0.0 °F 14.9 °F 91% 30.17 in 0.5 mi NNE 21.9 mph 27.6 mph N/A Snow Light Snow
5:35 PM 16.5 °F -0.6 °F 14.0 °F 90% 30.17 in 0.5 mi NNE 20.7 mph 27.6 mph N/A Snow Snow
6:15 PM 14.9 °F -4.3 °F 12.0 °F 88% 30.18 in 1.2 mi NNE 25.3 mph 33.4 mph N/A Snow Light Snow
6:35 PM 14.0 °F -6.2 °F 11.3 °F 89% 30.19 in 1.2 mi North 27.6 mph 32.2 mph N/A Snow Light Snow
6:55 PM 13.1 °F -5.9 °F 9.5 °F 86% 30.20 in 1.2 mi NNE 23.0 mph 33.4 mph N/A Snow Light Snow
7:15 PM 12.4 °F -8.0 °F 9.1 °F 87% 30.21 in 1.0 mi NNE 26.5 mph 33.4 mph N/A Snow Snow
7:35 PM 12.0 °F -6.5 °F 8.6 °F 86% 30.23 in 1.0 mi NNE 20.7 mph 32.2 mph N/A Snow Light Snow
7:55 PM 11.8 °F -6.7 °F 8.4 °F 86% 30.24 in 1.0 mi NNE 20.7 mph 31.1 mph N/A Snow Light Snow
8:15 PM 11.1 °F -7.7 °F 7.5 °F 85% 30.25 in 1.2 mi NNE 20.7 mph 25.3 mph N/A Snow Light Snow
8:35 PM 10.6 °F -10.4 °F 7.0 °F 85% 30.26 in 1.0 mi North 26.5 mph 29.9 mph N/A Snow Snow
8:55 PM 10.2 °F -9.7 °F 6.4 °F 85% 30.27 in 1.0 mi NNE 23.0 mph 32.2 mph N/A Snow Light Snow
9:15 PM 9.9 °F -9.8 °F 5.9 °F 84% 30.28 in 1.2 mi North 21.9 mph 28.8 mph N/A Snow Light Snow
9:35 PM 9.3 °F -9.6 °F 5.5 °F 85% 30.29 in 1.5 mi North 19.6 mph 28.8 mph N/A Snow Light Snow
9:55 PM 8.6 °F -12.7 °F 4.6 °F 84% 30.29 in 1.5 mi North 25.3 mph 32.2 mph N/A Snow Light Snow
10:15 PM 8.6 °F -11.0 °F 4.6 °F 84% 30.30 in 2.0 mi North 20.7 mph 29.9 mph N/A Snow Light Snow
10:35 PM 7.9 °F -12.4 °F 3.7 °F 83% 30.30 in 2.0 mi North 21.9 mph 28.8 mph N/A Snow Light Snow
10:55 PM 7.7 °F -13.1 °F 3.9 °F 85% 30.30 in 1.5 mi North 23.0 mph - N/A Snow Light Snow
11:15 PM 7.5 °F -11.9 °F 3.6 °F 84% 30.32 in 1.8 mi North 19.6 mph 28.8 mph N/A Snow Light Snow
11:35 PM 7.0 °F -12.6 °F 2.7 °F 82% 30.33 in 2.0 mi North 19.6 mph 24.2 mph N/A Snow Light Snow
11:55 PM 6.6 °F -14.5 °F 2.1 °F 82% 30.33 in 1.8 mi North 23.0 mph 31.1 mph N/A Snow Light Snow